Погода в Кишиневе

Погода в Кишиневе : погода сейчас, прогноз погоды и архив. Всё, что Вы хотите узнать о погоде в Кишиневе!

Хотите узнать прогноз погоды в Кишинёве? Тогда Вам сюда: Погода в Кишинёве

Поиск расширенной информации на нашем сайте:

Полезная информация:

Другие новости

Новости СМИ2

Главная страница сайта

Новости сайта

03.07.2017

Напоминаем, что на нашем специализированном сайте Метеоцентр.Азия вы можете получить высокодетализированные автоматические прогнозы погоды по пунктам России, СНГ и мира в авиационном формате (включающие направление и скорость ветра, видимость, явления погоды, количество и форму облачности, нижнюю и верхнюю границу облачности).

Рекомендуем:

Погода в Кишиневе - сегодня

Время (UTC), дата Ветер
(°,м/с) 
Видим.   Явления Облачность Т
(°С)
Тd
(°С)
f(%) Тe
(°С)
Pmin
(гПа)
dP
(гПа)
Po
(мм)
O2
(г/м3)
Тmin Tmax R s Состояние
почвы
12 20.03.19 330 (СЗ) 20000 м  {ливн. осадки}  10/10 600 м кучево-дожд. 
[Cb calv]
+9 +2.8 65 +8  1028  0.7  755  294           
15 20.03.19 360 (С) 20000 м    10/8 600 м кучево-дожд., средняя 
[Cb calv|Ac trans]
+8.6 +2.2 64 +9  1028.8  0.7  756  295           
18 20.03.19 350 (С) 20000 м    3/3 330 м средняя 
[Ac trans]
+7.3 +0.1 60 +8  1030.4  1.5  757  297    +9.7  0.0     
21 20.03.19 330 (СЗ) 20000 м    ясно 
+6 -0.3 64 +5  1031.3  0.8  758  299           
00 21.03.19 340 (С) 20000 м    ясно 
+4.5 -2.6 60 +3  1032  0.5  758  301           
03 21.03.19 340 (С) 20000 м    3/0 верхняя 
[Ci fib]
+3.8 -3.5 59 +3  1031.8  -0.2  758  302  +3.6         
06 21.03.19 340 (С) 20000 м    3/0 верхняя 
[Ci fib]
+5.6 -4.3 49 +5  1032.7  759  300  +3.3         
09 21.03.19 320 (СЗ) 20000 м    6/1 1000 м средняя, верхняя 
[Cu hum|Ac trans|Ci fib]
+9.9 -6.4 31 +8  1031.9  -0.5  758  296           
12 21.03.19 310 (СЗ) 20000 м    10/0 средняя, верхняя 
[Ac lent|Ci]
+11.6 -5.8 29 +10  1029.7  -2  757  293           
15 21.03.19 330 (СЗ) 20000 м    10/0 средняя, верхняя 
[Ac trans|Ci sp]
+11.4 -6.5 28 +10  1028.4  -1.3  756  293           
18 21.03.19 320 (СЗ) 20000 м    10/0 средняя, верхняя 
[Ac trans|Ci fib]
+9.8 -5.7 33 +9  1028.8  0.3  756  295    +12.6       
21 21.03.19 330 (СЗ) 20000 м    10/0 средняя 
[Ac und]
+8.8 -1.6 48 +8  1029.3  0.4  756  295           
00 22.03.19 300 (СЗ) 20000 м  слаб. ливневой дождь  10/3 600 м кучево-дожд., средняя 
[Cb calv|Ac trans]
+7.8 +0.1 58 +7  1029  -0.4  756  296           
03 22.03.19 320 (СЗ) 20000 м    10/1 600 м кучево-дожд., средняя, верхняя 
[Cb calv|Ac trans|Ci fib]
+6.1 +1.2 71 +5  1028.6  -0.5  756  298  +6.1         
06 22.03.19 320 (СЗ) 10 км    8/5 450 м средняя, верхняя 
[Ac As|Cc]
+7.1 +2.2 71 +6  1028.8  0.3  756  297  +5.7    0.0     
09 22.03.19 320 (СЗ) 10 км    10/4 600 м средняя, верхняя 
[Cu med, cong|Ac As|Ci fib]
+11.1 +1.9 53 +10  1027.4  -1.1  755  292           
12 22.03.19 320 (СЗ) 10 км    10/4 600 м средняя 
[Cu med, cong|Ac As]
+14.4 +1.3 41 +13  1024.8  -2.3  753  288           
15 22.03.19 310 (СЗ) 6{12}  10 км    8/3 600 м средняя, верхняя 
[Cu med, cong|Ac trans|Ci fib]
+13.8 +3.3 49 +13  1022.9  -1.9  752  288           
18 22.03.19 330 (СЗ) 7{14}  10 км    10/10 600 м 
[Cu med, cong]
+12.4 +4.6 59 +11  1023.7  0.7  752  289    +15.2       
21 22.03.19 310 (СЗ) 10 км    8/8 600 м 
[Cu med, cong]
+10.4 +3.2 61 +9  1023.6  -0.2  752  292           
00 23.03.19 330 (СЗ) 4{12}  10 км    3/0 верхняя 
[Ci fib]
+7.7 -2.9 47 +6  1024.5  0.6  753  295    +0.4       
03 23.03.19 340 (С) 10 км    3/0 верхняя 
[Ci fib]
+4.9 -7.6 40 +2  1024.1  -0.6  752  299           
06 23.03.19 330 (СЗ) 20000 м    3/0 240 м верхняя 
[Ci fib]
+4.4 -8.3 39 +2  1024.9  0.8  753  299  +3.4         
09 23.03.19 340 (С) 8{12}  20000 м    ясно 
+7.9 -10 27 +5  1024  -0.7  752  296           
12 23.03.19 350 (С) 7{13}  20000 м    ясно 
+10.7 -9.6 23 +9  1022.5  -1.2  751  292           
Время (UTC), дата Ветер
(°,м/с) 
Видим.   Явления Облачность Т
(°С)
Тd
(°С)
f(%) Тe
(°С)
Pmin
(гПа)
dP
(гПа)
Po
(мм)
O2
(г/м3)
Тmin Tmax R s Состояние
почвы

Для получения пояснительной информации подведите курсор к названию столбца.

ПОГОДА в Кишиневе - архив

Всё, что Вы хотите узнать о погоде в Кишиневе - удобно и подробно!

Выберите нужную дату (начиная с 1 января 2018* года) и нажмите кнопку "Найти".
Будут отображены архивные сводки погоды по пункту Кишинев, начиная с указанной даты.


Отображать данные в формате CSV (для использования в таблицах Excel)


Внимание! Наш архив погоды предназначен исключительно для личного некоммерческого использования в познавательных целях. Если Вам необходимы официальные справки о состоянии погоды (для производственных, юридических, коммерческих и т.п. целей), обращайтесь в органы Росгидромета.

*Примечание: данная дата относится к архиву по метеостанциям СССР (Россия, СНГ, Балтия).
Архив по метеостанциям Зарубежной Европы и Азии (кроме Китая) хранится 10 дней, по другим регионам земного шара (Китай, Африка, Америка, Австралия, Океания) - 1 день.

Кишинев - район местоположения метеостанции


Название, широта, долгота, высота метеостанции:
Кишинев 47°ш. 29°д. 173 м над ур. моря [Молдавия]

Дополнительная информация

В oтличие oт бoльшинства пoгoдных сайтoв мы публикуем пoдрoбную метеoинфoрмацию в детальнoм прoфессиoнальнoм фoрмате.

Характеристики температуры и влажнoсти вoздуха измеряются на высoте 2 м в тени вдали oт зданий и деревьев.
Скoрoсть ветра измеряется на высoте 10 м (на урoвне рoста челoвека скoрoсть ветра ниже в 1.5-2 раза). Если метеoстанция нахoдится в гoрoде или в лесу, тo скoрoсть ветра занижена на 2-4 м/с пo сравнению с oткрытым местoм. Скoрoсть ветра над акватoриями крупных рек и oзёр, а также на вершинах хoлмoв на 2-5 м/с выше, чем в oбычных услoвиях.
Атмoсфернoе давление в разных тoчках местнoсти мoжет значительнo oтличаться oт давления на метеoстанции, в зависимoсти oт услoвий рельефа (при пoдъёме на 10 м давление пoнижается примернo на 1 мм рт.ст.).